sat.trackr.live / text

‹ back to catalog

STARLINK-4683

NORAD 53712 · 2022-107N

PAYLOAD ACTIVE UNKNOWN

§ Identity

Operator
Country
US
Launch date
2022-09-05
Launch site
AFETR
Launch vehicle
Mass (kg)
RCS (m²)

Purposes: comms

External: N2YO · Heavens-Above · Gunter

§ Orbital elements

Epoch: 2026-09-20T22:17:09.945312Z

Period
93.85 min
Inclination
53.1574°
Eccentricity
0.0000780
Mean motion
15.34392574 rev/d
Perigee alt
462.2 km
Apogee alt
463.3 km
Semi-major
6,840.9 km
B*
2.8226e-5
RAAN
81.8268°
Arg perigee
114.2670°
Mean anomaly
245.8414°
Rev number
22,411

§ Raw data

STARLINK-46831 53712U 22107N   26263.92858733  .00000578  00000+0  28226-4 0  99972 53712  53.1574  81.8268 0000780 114.2670 245.8414 15.34392574224115

JSON: /api/v1/satellites/53712 · /tle

For live sub-satellite position, see the globe view (requires WebGL).

§ Visibility from observer

Set your observer location to see the next 7 days of passes ≥ 10°. The values pass through the URL so the page stays shareable.

No JS? Fill the form by hand. The geolocation button needs JavaScript.